GFSSW_925_spd_159.txt.gz
Wind_Speed
21 21 21 21 20 20 20 20 20 19 18 18 18 17 17 22 25 27 7 8 4 3 5 6 4 8 5 4 4 4 2 6 6 7 3 4 4 2 6 5 3 11 5 12 31
22 23 23 23 23 23 22 22 21 19 18 18 18 17 17 20 25 15 7 3 3 6 7 3 2 8 2 5 4 4 4 7 6 5 2 4 3 5 5 1 1 2 5 28 36
23 23 24 24 24 24 24 24 22 20 18 17 17 16 15 17 7 6 6 5 9 8 13 7 5 2 2 2 4 4 5 8 5 3 4 5 3 4 4 5 6 13 19 21 21
24 24 25 25 25 25 24 22 21 20 18 16 14 14 14 6 5 4 8 11 12 5 11 7 3 3 1 3 4 4 5 6 3 3 3 4 5 7 6 7 6 12 26 21 20
25 25 25 27 27 27 24 23 21 20 17 14 12 10 6 3 9 8 9 11 10 2 14 6 4 4 3 2 7 4 3 5 5 7 9 4 7 7 13 10 10 11 15 23 23
26 26 27 28 28 26 25 24 21 19 16 14 10 8 4 9 7 5 4 8 10 5 5 4 6 7 3 2 5 3 6 6 5 5 5 1 6 5 10 7 8 22 23 24 25
29 28 28 28 27 26 24 24 21 19 13 9 6 6 5 15 6 11 15 18 12 5 2 6 10 3 4 4 2 5 7 8 6 4 6 8 8 20 18 4 7 21 25 18 17
30 30 30 27 25 24 22 22 21 15 7 3 4 4 6 11 14 20 14 12 12 8 12 15 12 6 4 4 6 4 2 4 3 10 7 8 18 6 7 6 12 25 22 9 4
31 31 29 26 23 20 19 20 13 3 4 6 3 4 8 10 8 11 8 5 6 7 7 9 7 5 2 2 4 3 3 6 3 10 7 14 7 8 8 6 11 20 17 13 10
32 31 27 22 19 18 16 14 7 7 6 5 1 1 6 2 9 20 4 5 2 2 4 3 3 3 2 3 5 5 3 3 8 6 17 7 9 9 4 10 13 17 15 15 15
32 29 21 20 18 15 15 4 4 2 4 6 4 4 10 11 10 2 2 5 1 4 3 3 1 4 4 4 3 10 10 7 7 6 5 14 1 12 8 3 8 12 14 15 14
32 26 19 19 20 9 5 1 1 4 7 8 13 11 20 9 5 4 9 4 3 4 2 3 4 4 4 4 6 8 8 12 13 14 6 4 14 11 6 5 11 11 13 13 13
28 20 20 20 13 3 5 1 1 2 1 7 5 4 4 10 4 7 8 5 5 5 5 6 5 6 10 6 7 8 10 9 8 12 6 4 1 5 6 4 6 8 19 15 21
24 17 19 22 4 10 3 2 3 1 3 6 2 2 3 3 5 9 10 6 2 8 4 5 6 12 8 12 9 10 7 13 11 6 4 8 4 7 6 7 7 8 11 17 16
23 17 19 17 13 5 1 6 3 2 3 9 2 1 12 6 2 4 7 5 7 6 5 6 2 4 11 15 10 6 4 8 8 9 6 4 3 11 8 6 7 8 9 15 19
19 13 20 11 11 8 2 4 2 4 5 7 3 15 11 10 6 5 2 1 4 5 1 6 4 3 3 9 11 3 4 8 6 2 3 8 8 4 7 12 5 6 9 12 15
19 9 16 13 6 8 1 3 4 5 6 10 12 13 14 5 6 5 8 10 5 3 5 3 7 5 5 2 3 7 4 5 5 5 5 7 5 7 17 12 9 10 15 13 16
17 6 12 17 15 11 5 5 7 8 6 9 10 17 4 7 2 7 3 4 7 10 2 2 6 11 10 11 6 4 8 3 4 6 4 5 8 5 11 10 12 13 16 15 16
14 5 12 15 13 4 5 5 3 5 8 8 13 5 3 2 2 3 4 4 8 12 5 2 5 2 21 9 9 7 5 5 4 5 3 5 4 3 11 10 8 11 14 14 11
11 8 13 18 1 5 5 1 4 3 8 1 3 3 5 6 4 3 3 4 5 9 11 3 4 7 10 8 3 5 6 7 4 6 6 3 3 7 10 13 10 10 10 11 14
6 3 13 14 1 5 2 4 5 6 2 3 2 4 6 4 4 5 5 4 6 10 15 4 2 2 7 6 9 3 2 9 3 3 5 4 4 6 12 10 13 11 14 17 18
7 3 16 17 5 1 3 6 7 6 3 2 0 4 4 5 4 4 4 4 7 8 8 5 3 2 2 4 7 3 4 6 1 2 0 4 3 4 11 11 17 16 17 18 20
3 3 7 7 3 4 7 6 4 5 5 2 3 8 6 4 5 5 4 3 7 7 6 6 1 2 1 1 6 3 10 12 4 2 3 6 4 4 7 12 20 22 20 19 21
3 4 4 4 1 1 5 6 8 8 5 5 4 4 7 3 5 6 4 2 3 3 6 6 4 6 4 2 8 4 17 10 5 1 2 2 2 5 14 20 20 25 23 23 20
4 1 0 4 4 7 3 4 6 7 4 5 4 11 11 3 3 4 5 2 2 3 2 3 4 4 5 7 8 9 15 3 6 6 3 7 5 8 16 23 22 23 25 23 21
2 3 3 4 5 6 5 5 6 9 4 9 6 16 12 4 5 14 16 3 3 2 3 0 3 2 2 3 7 9 11 9 5 5 8 15 11 12 15 19 23 25 24 23 20
5 2 1 4 5 4 2 4 9 10 9 9 13 12 10 8 15 19 12 6 6 1 2 2 0 1 4 4 8 8 9 4 4 6 13 13 9 18 17 19 24 21 21 23 21

GFSSW_925_spd_162.txt.gz
Wind_Speed
21 22 22 21 21 22 21 21 20 20 18 18 18 18 19 20 23 24 6 4 1 1 5 7 0 4 4 3 3 4 1 3 3 4 4 3 6 5 5 6 3 5 1 8 30
22 22 22 22 22 22 22 21 19 19 18 17 17 17 18 19 24 15 6 1 5 3 5 2 3 4 2 3 3 4 4 8 7 6 3 2 2 4 1 2 5 3 5 24 26
23 23 23 23 23 23 22 20 19 18 17 16 14 14 15 16 6 5 8 9 7 9 9 1 1 2 1 0 3 3 5 6 3 2 2 2 6 4 5 3 5 7 7 15 17
24 25 24 25 24 22 22 21 19 17 16 15 11 10 11 6 2 1 2 11 13 2 10 3 1 3 3 4 2 1 3 2 3 2 2 2 6 7 5 7 6 7 10 14 16
26 26 26 25 24 23 22 20 18 16 15 13 9 8 5 2 8 5 8 9 9 6 8 5 5 4 5 3 1 4 2 1 2 6 5 5 7 6 10 15 12 8 9 15 14
26 27 28 26 24 23 22 20 20 19 15 10 6 5 2 6 5 7 8 6 6 5 4 5 5 5 3 2 3 1 1 3 2 5 5 3 5 2 6 9 10 10 15 14 13
27 27 27 25 23 22 22 22 22 18 11 5 2 3 5 12 6 8 13 17 15 5 3 5 6 3 4 2 3 3 1 2 6 5 5 3 10 23 13 12 10 9 10 13 13
28 28 26 23 22 21 21 23 17 15 2 2 3 2 5 9 13 15 11 10 12 11 12 12 6 3 2 2 5 3 2 3 4 11 6 7 23 7 10 10 16 10 8 11 9
29 27 24 21 20 20 21 19 11 8 5 5 2 3 8 8 8 8 7 3 5 8 10 8 6 3 1 3 4 6 1 3 4 11 7 16 2 7 8 8 11 11 9 11 11
29 27 23 19 20 19 18 14 4 4 6 2 1 1 5 4 9 15 2 2 2 3 0 3 4 3 3 4 1 3 3 4 5 7 13 11 12 11 2 8 11 12 9 13 15
29 25 21 18 22 15 15 5 4 3 1 5 3 4 6 12 8 1 2 3 1 4 2 3 4 3 6 5 4 1 2 3 7 8 3 15 7 12 18 4 8 8 11 13 13
28 24 21 19 20 6 6 2 2 3 6 5 8 6 12 6 4 4 6 2 1 3 2 4 3 5 5 4 3 2 3 5 10 11 6 8 10 15 7 5 8 12 13 15 14
26 22 21 19 14 1 5 3 4 1 1 6 4 3 4 6 3 5 6 3 3 2 3 5 5 5 5 4 4 4 5 4 5 10 7 4 5 5 8 6 5 7 14 15 20
31 22 19 20 3 5 3 3 5 2 3 5 1 2 4 5 4 7 10 6 3 9 4 4 5 5 5 3 6 2 4 6 8 5 3 4 4 6 8 9 10 9 13 13 15
31 19 19 17 11 2 1 1 3 2 4 13 1 3 8 1 6 3 6 3 8 6 6 6 5 4 5 5 7 4 6 7 7 6 5 4 1 5 11 6 8 13 15 16 17
28 13 16 11 11 3 2 3 1 5 5 7 3 11 10 6 2 4 6 6 3 4 1 3 1 5 6 6 10 4 4 5 2 2 4 8 5 3 9 14 8 16 17 17 15
21 8 12 13 7 5 2 2 4 5 6 9 9 10 11 4 5 6 4 4 2 4 6 2 7 4 4 2 4 5 3 2 2 4 5 9 2 7 11 8 11 18 19 19 18
16 7 17 10 17 7 2 5 7 3 5 11 10 9 3 5 2 5 5 2 9 1 2 3 5 10 9 7 6 5 7 4 7 6 5 8 7 7 12 9 13 20 20 18 15
13 5 11 23 8 4 5 5 3 3 6 10 11 3 3 1 2 3 4 4 9 13 7 4 4 4 13 7 10 5 6 4 3 4 2 6 7 4 4 8 9 16 16 18 13
11 7 11 18 5 6 5 2 3 4 4 2 5 2 3 5 4 2 2 5 5 14 5 5 3 3 0 3 2 8 8 3 3 4 5 5 4 5 8 16 10 14 16 11 11
6 3 13 14 4 6 3 4 6 8 4 1 3 4 5 5 7 5 4 4 6 9 8 3 3 1 6 5 10 4 4 3 2 3 5 5 5 6 14 21 20 16 14 17 16
7 3 16 15 4 1 2 5 6 6 2 5 2 6 5 4 6 5 4 4 7 9 9 6 3 4 3 5 9 4 5 8 3 2 3 4 5 3 7 10 20 17 17 19 19
3 3 8 8 3 4 6 6 4 4 6 3 3 6 6 3 4 8 6 4 7 8 9 7 2 3 2 3 3 4 5 7 8 4 6 5 5 4 12 14 15 24 20 19 18
3 5 4 4 1 2 4 5 7 5 5 4 6 4 10 4 7 5 5 8 2 4 12 7 4 5 4 3 4 6 9 13 9 4 3 3 5 5 13 20 17 22 22 20 19
4 1 1 5 3 5 3 3 5 5 4 4 4 4 12 6 4 5 6 6 11 13 1 2 4 4 9 3 6 6 12 15 17 20 5 3 6 6 15 22 20 20 22 22 19
2 3 3 4 4 5 3 3 4 4 3 7 4 19 14 6 11 11 14 7 8 2 3 1 3 2 4 2 7 5 13 21 24 21 8 6 6 9 16 17 20 19 23 21 20
4 1 1 4 4 3 3 2 8 7 7 11 11 13 10 10 15 21 13 7 6 4 1 2 2 1 3 6 3 7 15 16 6 5 7 5 7 16 21 21 22 22 22 24 23

GFSSW_925_spd_165.txt.gz
Wind_Speed
21 20 19 19 18 18 19 18 17 17 16 16 15 15 15 17 20 16 8 4 1 2 3 3 1 2 4 3 3 3 7 13 14 14 9 7 12 7 5 17 10 6 7 5 23
21 21 20 20 19 19 17 17 17 16 16 16 14 13 14 16 16 11 4 1 4 3 1 2 2 1 4 4 4 7 9 13 7 8 8 7 9 5 5 10 16 12 3 18 25
22 22 21 21 20 19 18 17 16 15 14 14 13 10 11 14 5 2 8 6 6 6 4 4 1 1 6 3 7 4 9 9 9 7 4 5 5 3 5 11 12 7 10 14 18
24 22 21 20 19 19 18 17 16 14 13 12 11 8 11 6 3 3 4 4 11 3 8 4 3 5 5 9 4 6 6 5 6 3 3 4 5 5 9 9 5 3 4 16 18
24 23 22 21 19 19 18 17 17 16 15 12 8 6 4 3 6 3 6 6 5 5 5 4 5 4 8 4 4 10 5 6 11 6 6 7 13 8 15 16 14 11 3 12 13
25 24 23 22 20 19 19 19 19 19 13 8 4 4 1 4 2 6 6 7 5 5 5 6 3 2 3 2 9 1 4 9 6 10 6 6 12 6 15 5 8 7 5 11 14
26 25 23 22 19 19 19 20 19 15 9 2 3 3 3 9 4 8 12 10 10 3 1 4 3 3 2 2 2 4 5 5 13 9 7 6 19 24 21 19 20 15 8 6 13
26 23 21 19 19 19 20 21 14 12 4 4 3 2 5 5 8 10 8 4 5 8 6 4 1 2 3 1 1 5 6 10 8 14 11 9 28 16 18 19 22 17 11 4 12
26 23 20 18 18 20 17 19 8 7 6 5 3 1 4 7 3 5 4 2 3 6 5 3 2 1 4 2 3 2 4 12 9 14 10 23 10 14 16 10 19 16 11 6 12
27 23 19 17 18 18 15 15 3 3 2 1 1 3 2 4 6 8 1 2 2 5 3 3 1 3 3 3 4 5 7 6 8 11 18 16 22 17 3 13 14 10 11 10 16
28 24 20 18 19 13 13 3 2 1 1 2 6 4 6 11 6 3 2 5 4 4 4 2 4 7 7 7 4 4 4 6 8 6 5 16 16 21 23 15 14 9 11 12 16
29 23 21 18 18 6 7 2 1 2 6 3 6 8 8 5 4 1 6 4 4 5 4 4 7 6 6 6 6 6 8 9 11 13 6 12 14 14 19 19 17 15 11 15 17
32 22 19 17 12 3 4 0 2 2 2 4 4 3 2 4 4 8 5 3 5 5 6 6 3 4 11 8 8 8 9 7 8 8 10 10 15 16 13 19 18 9 13 18 21
35 19 17 13 4 6 2 1 2 2 1 8 2 2 4 4 4 6 7 6 5 9 6 6 3 7 5 6 7 11 8 10 9 5 6 4 5 16 17 16 19 14 15 17 18
34 15 14 13 5 1 3 2 1 2 2 15 2 2 11 4 11 2 1 2 12 8 6 2 5 6 7 10 11 6 6 7 8 7 7 8 5 13 16 16 17 19 19 20 20
28 11 12 8 6 6 1 2 1 1 5 8 7 10 13 4 2 4 2 3 9 11 6 8 1 5 6 5 11 6 8 6 5 5 8 14 11 13 14 23 21 20 20 22 22
22 10 13 8 4 5 1 1 2 5 8 10 13 12 12 5 4 2 5 2 4 5 10 9 15 8 9 9 9 13 9 5 5 6 8 15 10 16 18 21 23 24 23 23 23
18 4 15 18 8 2 0 2 7 5 8 14 12 17 5 3 2 4 4 3 5 2 1 9 4 13 11 16 9 18 9 3 7 7 12 10 11 12 18 15 20 21 22 24 22
16 3 9 21 7 5 2 5 2 5 10 12 16 4 4 3 3 4 4 4 6 12 6 6 5 3 8 11 14 13 11 1 3 4 5 10 15 9 8 15 17 20 21 23 23
12 5 7 18 7 3 4 1 3 3 11 7 4 3 4 7 7 3 3 4 4 14 11 2 4 1 4 10 12 9 9 6 3 7 8 14 20 11 13 19 18 22 23 21 20
6 2 13 15 3 5 2 3 5 9 8 4 6 4 6 4 7 6 4 5 7 10 14 2 3 2 6 13 16 8 11 7 4 5 9 9 16 18 13 20 23 25 24 24 23
6 1 16 15 3 2 2 6 5 6 2 5 3 5 4 4 5 6 5 5 6 11 9 10 3 7 12 2 8 18 15 16 8 13 5 5 11 4 16 22 23 23 22 23 24
4 3 9 9 3 4 6 5 4 4 8 4 6 5 7 4 5 7 9 8 4 11 5 6 6 5 4 3 10 16 18 17 6 2 10 4 6 3 7 17 20 24 21 20 20
3 4 3 4 2 2 5 4 6 6 6 4 9 8 12 12 11 5 5 4 10 6 5 5 5 10 6 5 4 9 19 15 14 7 6 10 5 6 14 17 21 24 20 21 20
4 2 1 5 2 7 4 4 6 7 4 6 5 10 19 6 10 6 6 5 11 10 5 5 8 11 13 9 8 13 19 17 17 21 7 2 14 7 17 23 24 24 22 22 20
3 3 2 6 8 8 0 2 5 10 4 7 6 22 20 10 12 16 8 5 7 3 7 6 5 6 11 10 2 8 17 20 21 20 24 22 25 13 8 19 20 19 21 21 20
3 0 2 4 4 4 2 3 9 13 9 16 18 18 17 16 21 21 13 7 6 4 2 2 3 3 2 1 7 6 18 22 15 20 19 19 18 14 17 22 24 21 19 22 22

GFSSW_925_spd_168.txt.gz
Wind_Speed
18 18 18 18 17 17 17 16 15 15 14 15 15 14 13 15 18 16 12 3 2 4 2 5 6 8 10 12 11 14 13 19 27 22 19 12 19 19 15 17 12 11 7 8 18
20 19 18 18 17 16 16 16 15 14 13 13 14 14 11 13 15 9 2 2 3 3 4 5 6 8 12 13 10 14 16 24 17 20 16 15 17 20 18 19 19 20 8 11 19
20 19 18 17 17 16 15 15 15 14 13 13 13 13 10 12 9 6 8 5 8 8 6 4 4 9 13 12 16 15 21 18 16 11 14 15 14 13 15 19 21 20 16 14 16
20 18 17 16 16 16 15 15 15 14 14 12 12 10 11 8 4 4 1 3 9 2 5 5 7 10 10 17 17 17 15 20 10 17 13 17 14 14 17 13 7 8 9 13 16
19 18 17 17 15 15 15 16 16 16 14 11 8 7 7 5 1 1 3 4 2 1 4 4 7 7 11 10 15 16 21 15 18 9 14 12 13 17 17 17 6 1 1 13 14
21 19 17 16 15 15 16 17 18 15 11 4 2 3 5 1 1 2 2 5 6 4 2 3 3 4 6 10 12 8 19 15 19 17 16 16 19 18 16 17 12 8 8 10 15
22 20 18 15 15 17 17 17 15 12 4 2 4 1 2 5 1 3 7 5 7 8 6 3 1 7 2 7 14 9 12 16 20 16 17 14 21 28 21 12 11 8 5 5 13
23 20 16 15 15 18 15 18 9 6 4 4 3 1 2 1 4 6 6 4 5 9 8 3 3 5 8 2 8 15 15 16 18 22 18 17 23 22 22 21 20 16 9 6 5
26 21 17 16 16 16 13 16 4 3 3 3 2 4 5 2 2 4 4 5 4 5 9 2 7 8 7 11 9 11 13 20 18 18 21 21 12 24 17 20 17 17 14 10 8
28 22 17 15 16 13 11 7 2 2 1 3 3 5 2 7 7 8 1 2 3 9 8 9 7 10 10 8 9 9 13 7 16 16 20 23 23 16 9 17 19 15 15 13 11
31 23 17 15 15 9 9 5 4 5 5 4 5 3 4 10 3 3 3 6 5 8 10 8 9 11 9 7 7 6 7 8 8 2 11 19 22 21 22 10 14 15 13 13 15
35 24 15 13 11 4 5 6 5 5 5 3 4 6 7 5 8 2 6 7 7 9 4 7 11 8 6 8 9 10 11 10 9 13 10 13 19 19 19 21 18 14 14 14 15
38 23 13 13 6 4 4 6 3 2 5 2 3 4 3 5 11 3 6 5 9 5 10 14 3 1 10 10 11 11 11 7 9 4 9 12 16 18 22 20 20 17 13 14 18
39 18 11 8 2 5 4 3 2 2 4 5 1 2 2 11 3 6 6 7 6 9 11 9 8 7 8 11 9 12 7 10 10 9 12 15 7 24 22 23 21 20 16 16 20
37 13 10 7 6 7 5 3 1 4 3 8 4 2 9 12 11 3 1 6 12 10 8 3 6 8 11 9 8 9 4 8 10 10 12 11 7 14 24 22 23 22 19 17 19
29 11 11 7 2 6 2 1 3 4 4 7 8 16 16 12 4 5 3 3 7 10 16 18 4 8 9 4 7 4 8 9 9 9 12 16 14 12 18 27 25 24 22 20 19
24 5 8 6 7 5 3 4 3 4 12 7 16 19 19 10 10 4 8 7 5 5 12 18 18 13 10 11 7 12 10 7 7 8 12 18 12 19 18 24 26 26 24 22 21
18 1 7 11 6 4 6 5 3 7 8 15 14 16 8 11 7 7 7 10 6 8 9 6 8 21 15 18 11 16 13 6 8 12 13 8 13 12 19 13 23 23 23 22 23
13 2 2 15 6 5 6 4 5 9 13 13 16 5 10 11 5 9 10 11 2 13 7 3 4 7 6 13 18 13 16 11 9 16 9 14 17 13 18 18 18 25 24 23 21
10 3 5 16 6 7 4 3 5 6 12 10 7 2 9 11 5 12 9 4 3 11 12 2 5 8 7 11 14 13 12 10 8 8 14 13 20 12 20 16 21 27 24 25 21
6 3 8 15 3 4 3 5 7 8 8 5 12 8 10 5 8 6 6 5 6 7 11 6 6 6 5 14 16 10 12 13 12 13 11 16 15 17 14 19 24 25 25 25 25
7 3 12 12 2 3 4 8 5 8 6 8 8 10 10 12 5 7 6 7 8 5 7 12 6 10 13 11 14 18 19 20 10 16 15 15 11 18 17 16 25 26 26 29 28
8 3 6 11 4 6 9 5 4 10 11 5 7 8 17 6 7 7 7 7 7 5 2 7 7 7 3 0 9 14 22 19 19 12 15 14 9 6 21 13 25 26 25 25 29
5 5 2 2 3 7 9 6 8 9 12 6 14 14 14 20 16 6 4 5 7 5 10 3 9 12 11 4 3 24 22 22 20 16 17 19 3 10 12 17 25 23 26 24 23
5 4 3 6 4 11 8 6 13 12 5 11 7 14 21 12 17 4 5 4 11 10 5 7 8 16 20 18 14 14 26 27 24 25 16 21 4 10 16 15 23 26 21 23 23
6 5 3 11 9 11 3 7 11 15 8 9 11 20 20 17 10 22 16 5 6 9 12 8 6 13 18 2 6 12 20 25 24 22 26 23 20 14 12 16 21 18 26 28 26
6 3 3 5 7 7 6 9 14 16 10 11 15 19 18 21 25 18 8 6 7 4 4 5 5 5 5 8 8 6 19 20 21 23 23 24 19 7 12 13 18 16 21 26 27

GFSSW_925_spd_171.txt.gz
Wind_Speed
17 16 15 14 14 14 14 14 14 14 13 14 14 16 17 15 19 19 14 6 5 9 7 11 10 11 15 16 19 17 17 21 27 26 23 21 21 15 20 21 22 16 12 17 17
16 16 15 15 14 14 14 14 13 14 12 12 14 13 15 13 16 14 4 1 2 4 9 9 8 9 12 15 17 18 16 27 25 21 24 26 18 16 21 21 23 12 13 19 15
16 16 15 15 14 14 14 14 15 14 14 14 14 13 13 11 16 7 4 2 7 7 10 9 11 10 15 16 20 21 22 21 25 25 22 19 23 14 21 21 21 20 15 19 14
18 16 15 14 14 14 15 15 16 16 16 15 13 12 11 11 3 7 1 2 5 7 8 8 10 13 15 17 18 24 24 21 27 22 18 19 16 18 22 25 16 23 17 21 18
18 17 15 14 15 15 16 16 17 17 16 11 8 7 9 8 5 2 4 6 8 5 10 8 10 10 16 15 16 20 23 22 21 21 18 18 19 21 20 13 5 8 4 16 15
20 18 16 13 14 16 17 17 18 14 10 5 3 2 8 0 3 1 2 5 9 9 8 9 9 10 14 15 16 17 21 16 21 22 22 15 20 22 18 19 14 9 7 10 17
23 19 16 14 14 16 17 16 13 9 5 2 1 4 7 7 0 3 5 6 6 10 11 10 9 9 8 13 16 15 20 16 26 21 26 20 21 26 23 20 17 12 12 14 15
27 22 17 14 14 15 15 16 8 4 2 1 2 6 2 1 4 6 5 7 5 9 13 8 8 14 13 16 7 14 18 18 23 25 22 22 26 25 24 23 24 19 13 11 12
30 25 17 12 12 13 11 14 4 1 3 3 6 7 4 4 5 5 5 7 3 5 11 5 12 14 13 13 15 18 16 23 25 28 27 26 22 23 26 23 20 19 17 14 10
33 27 16 12 11 10 9 8 5 1 2 8 10 7 6 7 10 7 4 6 6 4 9 11 11 14 13 13 15 10 21 19 23 23 27 30 24 23 24 29 24 20 21 17 16
36 26 14 11 11 6 10 4 4 7 12 7 6 5 3 10 4 1 2 5 7 7 12 7 11 14 16 12 23 12 15 13 12 17 22 22 25 25 16 20 22 23 17 18 16
37 22 11 12 8 5 8 10 10 8 8 7 4 4 5 6 10 4 2 8 7 12 6 7 12 15 8 10 15 13 13 16 14 10 7 15 23 26 25 20 19 21 22 22 18
37 18 10 11 4 5 5 10 10 4 7 9 1 6 5 8 9 6 4 10 12 13 10 12 12 7 7 13 12 14 17 16 17 11 16 15 18 22 26 22 22 18 22 19 19
34 13 9 10 4 11 10 11 7 2 4 5 6 4 4 9 2 7 11 10 13 14 11 12 16 13 9 9 17 15 15 13 13 11 13 20 12 23 25 25 24 22 19 21 20
33 10 8 6 11 13 12 10 3 5 3 7 2 1 8 9 11 4 3 7 16 13 11 12 8 8 12 13 11 14 7 11 15 15 16 17 12 17 28 25 26 25 24 19 22
31 6 8 4 9 13 10 7 5 6 5 8 11 17 14 6 1 4 5 7 11 13 16 20 14 11 11 9 6 12 11 14 14 14 13 19 13 18 25 29 27 27 25 23 23
23 3 5 7 11 13 10 8 6 4 15 10 20 17 14 12 10 3 9 12 7 7 13 15 19 18 12 14 12 11 15 10 10 11 13 19 13 21 22 27 30 29 28 27 24
13 4 6 6 14 12 11 9 5 12 12 18 16 16 7 9 11 16 15 15 14 12 12 13 8 18 15 19 14 11 15 9 6 10 13 17 16 16 18 11 27 27 28 26 25
11 4 4 12 12 10 9 4 6 10 14 16 17 11 12 9 7 10 19 17 12 11 8 7 5 1 11 16 19 16 15 14 8 16 11 12 11 17 15 14 24 27 29 26 25
15 8 4 14 11 10 5 3 8 6 13 12 15 8 17 19 11 16 13 7 9 6 12 9 8 6 11 8 17 16 10 10 8 9 13 14 21 11 18 15 14 25 29 27 23
8 5 7 15 9 6 5 7 12 11 10 9 15 17 17 15 13 15 6 14 10 10 11 12 9 7 9 11 15 12 15 15 14 12 10 12 12 15 16 19 19 23 28 28 21
9 5 10 17 8 7 5 9 5 11 13 13 10 16 16 18 18 7 7 4 8 10 5 10 7 11 17 12 15 10 16 18 11 17 13 16 16 5 18 20 18 24 27 28 27
8 7 3 13 6 8 12 14 6 12 13 14 11 15 18 18 9 8 7 4 6 4 6 4 7 8 12 6 7 14 17 19 19 17 19 14 16 15 17 15 21 27 28 27 26
6 6 5 7 2 12 14 11 12 9 12 11 17 16 16 18 16 10 11 5 9 10 14 5 11 13 13 8 5 15 24 24 23 16 19 19 23 13 14 14 22 27 27 28 23
6 5 5 7 11 14 14 14 16 15 9 15 10 16 20 19 15 3 7 5 10 14 7 6 7 16 21 24 14 18 24 31 28 25 24 24 20 17 22 24 11 27 29 29 23
7 5 7 13 10 13 5 12 14 17 18 17 15 20 21 18 17 25 13 1 6 5 9 5 4 13 22 21 21 14 20 29 31 27 27 29 13 5 28 31 20 17 31 27 25
12 10 6 10 10 11 9 13 19 18 10 11 17 19 20 22 22 18 4 7 8 7 11 6 5 4 7 6 8 10 19 27 27 30 28 25 19 13 29 22 8 27 27 27 26

GFSSW_925_spd_174.txt.gz
Wind_Speed
16 15 15 16 15 15 15 15 16 16 17 17 17 19 20 20 20 19 15 3 5 12 14 14 13 11 11 15 17 19 16 18 26 25 20 22 24 22 22 17 15 18 21 20 29
17 16 16 16 16 16 16 16 16 16 16 17 17 19 18 17 18 16 1 3 6 7 9 14 12 7 9 12 15 17 16 25 23 23 23 23 25 26 18 15 19 22 21 24 24
17 16 16 15 16 16 16 16 16 17 18 17 18 17 16 13 12 6 2 1 5 7 11 14 13 13 14 14 16 19 21 22 21 24 26 27 24 26 18 18 21 23 21 19 18
18 17 16 16 16 17 17 17 17 18 17 17 15 13 12 9 4 6 4 3 5 10 15 14 9 11 14 15 16 19 22 24 23 25 25 25 23 27 25 15 20 24 23 21 20
21 19 16 15 16 17 18 18 18 18 15 12 9 8 9 8 6 3 6 6 9 11 11 11 11 12 15 14 17 19 19 20 22 25 23 25 22 26 22 14 20 20 19 25 17
26 22 18 15 15 17 19 19 17 14 11 9 5 5 8 7 4 2 3 6 8 10 12 11 11 14 13 18 16 19 17 17 17 23 23 24 22 23 19 18 22 7 6 21 23
29 25 19 15 14 16 18 18 16 11 8 7 4 7 14 6 4 5 7 8 8 9 11 13 12 11 14 15 17 17 18 16 21 19 21 19 24 25 21 22 20 11 8 12 21
32 27 21 13 13 14 16 16 11 7 6 5 3 7 5 2 6 7 7 11 6 8 11 15 11 12 15 17 20 20 15 16 20 19 20 24 26 24 21 21 24 20 14 15 13
37 28 20 12 13 14 14 14 8 7 6 5 6 7 1 3 5 8 7 9 9 6 6 11 7 13 15 15 14 16 16 20 21 19 20 27 28 27 23 22 22 19 13 16 11
40 27 16 12 13 12 14 15 12 8 7 9 14 9 10 7 13 9 6 5 9 6 8 9 10 12 13 13 14 13 14 18 20 17 21 27 28 25 25 26 24 23 18 15 14
40 26 14 11 12 8 14 6 4 6 11 13 8 6 8 10 6 5 3 7 9 9 11 13 10 11 14 12 20 21 14 21 20 23 22 26 26 27 24 24 24 24 21 17 17
40 22 13 12 13 8 12 7 12 10 11 9 5 10 5 4 13 5 1 7 11 13 13 8 11 15 10 7 22 15 11 24 20 11 14 19 27 29 26 25 24 24 17 18 17
39 18 13 15 15 12 13 17 11 10 6 8 7 6 5 6 11 9 7 9 14 15 16 15 14 8 12 11 13 16 18 17 17 14 19 25 21 24 28 25 20 26 21 21 19
39 14 12 14 9 14 17 15 12 4 4 7 10 4 8 3 4 6 10 12 13 17 18 14 14 14 10 17 8 14 17 20 17 4 7 16 12 20 24 22 21 18 18 20 20
38 11 9 10 13 12 15 12 7 3 2 7 3 2 10 6 8 2 7 8 13 15 16 19 12 15 15 17 8 14 12 17 17 13 15 18 15 18 21 26 24 22 19 21 24
34 11 9 8 8 14 17 10 6 5 4 9 18 17 14 9 10 8 6 9 15 18 16 19 21 16 17 3 10 10 10 20 12 13 14 21 18 19 20 26 24 23 22 23 21
34 11 6 10 11 18 15 11 6 2 17 13 23 20 19 8 12 9 11 13 6 6 14 14 17 21 20 18 13 12 7 9 10 11 14 23 20 18 26 31 27 25 24 19 20
30 7 7 8 17 14 12 9 8 15 14 19 18 21 12 6 13 16 13 19 15 11 3 10 11 10 13 19 15 14 14 10 8 5 11 22 20 18 13 29 28 27 23 21 21
28 8 7 6 12 10 8 7 6 12 14 16 19 13 16 18 15 14 17 13 14 8 7 11 3 15 13 13 11 13 17 4 4 18 16 13 21 19 13 13 26 26 25 25 25
22 12 2 13 10 9 8 8 13 10 12 14 15 14 20 19 18 19 12 8 18 12 15 10 15 11 6 8 13 16 2 8 8 5 8 10 17 12 14 14 18 26 29 26 25
5 5 3 18 10 8 6 10 15 12 11 10 19 17 19 17 18 21 7 14 4 12 12 10 8 10 7 12 11 10 15 13 14 12 13 9 8 10 15 10 9 24 25 25 25
12 6 8 17 5 6 9 17 14 11 12 14 12 13 17 19 20 14 8 7 10 9 6 5 5 9 14 17 13 15 15 14 9 16 13 11 13 15 7 15 11 14 23 25 22
8 11 5 13 8 8 14 15 11 14 13 15 11 15 19 17 8 8 10 7 8 4 4 4 6 8 10 10 11 15 14 15 14 13 20 15 13 10 15 7 14 13 17 23 23
5 7 9 11 11 14 16 15 18 12 12 14 17 15 16 18 18 12 19 2 8 12 14 6 6 12 10 6 5 8 15 15 16 13 18 22 22 15 13 16 21 19 12 25 17
5 7 9 8 12 16 20 16 20 19 16 17 17 15 18 19 19 8 18 5 7 7 6 4 6 15 21 21 18 14 21 22 18 21 20 28 22 15 12 13 17 20 22 18 30
6 6 8 15 15 19 16 16 19 19 20 16 14 19 19 19 16 24 19 3 5 7 9 5 5 9 20 20 21 23 17 27 24 29 28 31 26 4 10 13 15 20 24 14 27
13 16 6 9 14 14 14 19 23 22 14 19 18 18 18 19 21 18 18 12 10 8 10 5 4 5 11 13 17 12 25 27 28 29 30 27 24 12 10 12 14 20 22 18 29